N2QDK-2 Weather Reports


time (UTC)temp
F
wind
direction
speed
knots
gust
knots
rain 1hr
in
rain 24hr
in
rain mn
in
humidity
%
barometer
mb
20260504050517 52 0.0 0.0 0.00 0.01 0.00 58 1008.7
20260504045517 53 0.0 0.0 0.00 0.01 0.00 58 1008.8
20260504044517 53 248 0.9 1.7 0.00 0.01 0.00 57 1008.9
20260504043517 54 225 0.9 1.7 0.00 0.01 0.00 56 1008.9
20260504042516 55 248 0.9 2.6 0.00 0.01 0.00 55 1008.9
20260504041517 55 225 1.7 2.6 0.00 0.01 0.00 54 1008.7
20260504040516 55 225 0.9 1.7 0.00 0.01 0.00 55 1008.8
20260504035517 55 225 0.9 3.5 0.00 0.01 0.01 55 1008.7
20260504034517 55 248 0.9 4.3 0.00 0.01 0.01 56 1008.8
20260504033516 54 225 0.9 3.5 0.00 0.01 0.01 56 1008.8
20260504032517 54 0.0 0.9 0.00 0.01 0.01 56 1008.8
20260504031517 54 225 0.9 2.6 0.00 0.01 0.01 56 1008.8
20260504030517 54 248 0.9 1.7 0.00 0.01 0.01 57 1008.9
20260504025517 54 0.0 1.7 0.00 0.01 0.01 58 1008.8
20260504024516 54 225 0.9 3.5 0.00 0.01 0.01 58 1008.9
20260504023516 54 0.0 1.7 0.00 0.01 0.01 60 1009.0
20260504022517 54 248 0.9 1.7 0.00 0.01 0.01 60 1009.1
20260504021516 53 248 0.9 4.3 0.00 0.01 0.01 61 1009.2
20260504020517 53 0.0 0.0 0.00 0.01 0.01 64 1009.2
20260504015516 52 0.0 0.0 0.00 0.01 0.01 68 1009.2
20260504014516 51 0.0 0.0 0.00 0.01 0.01 70 1009.1
20260504013516 50 0.0 0.0 0.00 0.01 0.01 75 1009.1
20260504012516 50 270 0.9 3.5 0.00 0.01 0.01 79 1009.3
20260504011517 49 0.0 0.0 0.01 0.01 0.01 86 1009.3
20260504010516 49 0.0 0.0 0.01 0.01 0.01 85 1009.6
20260504005516 49 0.0 0.0 0.01 0.01 0.01 84 1009.5
20260504004516 49 0.0 0.0 0.01 0.01 0.01 83 1009.5
20260504003516 50 0.0 0.0 0.01 0.01 0.01 83 1009.8
20260504002516 51 0.0 1.7 0.01 0.01 0.01 80 1010.0
20260504001517 51 0.0 2.6 0.00 0.00 0.00 74 1010.0
20260504000516 51 0.0 3.5 0.00 0.00 0.00 73 1009.8
20260503235516 51 293 1.7 5.2 0.00 0.00 0.00 72 1009.6
20260503234516 52 293 1.7 6.1 0.00 0.00 0.00 71 1009.6
20260503233516 53 270 3.5 11.3 0.00 0.00 0.00 67 1009.7
20260503232516 54 270 2.6 6.1 0.00 0.00 0.00 60 1009.4
20260503231516 55 270 2.6 7.8 0.00 0.00 0.00 56 1009.3
20260503230516 55 270 1.7 4.3 0.00 0.00 0.00 53 1009.0
20260503225517 55 248 2.6 7.8 0.00 0.00 0.00 51 1009.0
20260503224516 56 248 2.6 6.1 0.00 0.00 0.00 50 1008.8
20260503223516 56 270 3.5 9.6 0.00 0.00 0.00 48 1008.8
20260503222516 56 270 1.7 5.2 0.00 0.00 0.00 49 1008.8
20260503221517 56 248 0.9 2.6 0.00 0.00 0.00 48 1008.7
20260503220516 57 248 0.9 3.5 0.00 0.00 0.00 47 1008.6
20260503215516 56 293 1.7 4.3 0.00 0.00 0.00 49 1009.0
20260503214516 56 270 0.9 3.5 0.00 0.00 0.00 50 1009.3
20260503213516 57 248 1.7 4.3 0.00 0.00 0.00 47 1009.4
20260503212516 57 293 2.6 5.2 0.00 0.00 0.00 45 1009.1
20260503211516 57 270 1.7 6.1 0.00 0.00 0.00 44 1008.9
20260503210516 58 270 1.7 4.3 0.00 0.00 0.00 44 1008.8
20260503205516 58 248 1.7 6.1 0.00 0.00 0.00 43 1008.9
20260503204516 58 270 1.7 5.2 0.00 0.00 0.00 42 1009.0
20260503203516 58 225 1.7 7.0 0.00 0.00 0.00 41 1009.2
20260503202516 58 293 2.6 8.7 0.00 0.00 0.00 41 1009.2
20260503201516 58 293 2.6 5.2 0.00 0.00 0.00 41 1009.4
20260503200516 58 248 1.7 3.5 0.00 0.00 0.00 41 1009.6
20260503195516 58 270 3.5 11.3 0.00 0.00 0.00 40 1009.8
20260503194515 58 270 1.7 4.3 0.00 0.00 0.00 40 1009.9
20260503193516 57 293 1.7 6.1 0.00 0.00 0.00 42 1010.2
20260503192516 57 248 2.6 7.0 0.00 0.00 0.00 40 1010.3
20260503191515 57 293 2.6 9.6 0.00 0.00 0.00 44 1010.5
20260503190515 56 270 2.6 6.1 0.00 0.00 0.00 42 1010.8
20260503185516 55 248 1.7 8.7 0.00 0.00 0.00 45 1010.9
20260503184516 55 270 1.7 5.2 0.00 0.00 0.00 46 1010.9
20260503183516 55 315 1.7 3.5 0.00 0.00 0.00 54 1011.2
20260503182515 54 0.0 2.6 0.00 0.00 0.00 57 1011.4
20260503181515 54 0.0 1.7 0.00 0.00 0.00 53 1011.5
20260503180516 54 0.0 1.7 0.00 0.00 0.00 54 1011.6
20260503175515 55 23 0.9 1.7 0.00 0.00 0.00 55 1011.6
20260503174515 54 45 0.9 3.5 0.00 0.00 0.00 53 1011.8
20260503173515 53 338 1.7 4.3 0.00 0.00 0.00 53 1011.9
20260503172515 55 315 1.7 3.5 0.00 0.00 0.00 50 1011.9
20260503171517 54 315 1.7 5.2 0.00 0.00 0.00 52 1011.9
20260503170517 54 293 1.7 6.1 0.00 0.00 0.00 48 1011.8
20260503150517 51 293 1.7 5.2 0.00 0.00 0.00 51 1013.2
20260503130517 44 293 0.9 3.5 0.00 0.00 0.00 59 1014.1
20260503110516 36 0.0 0.0 0.00 0.00 0.00 84 1013.9
20260503081516 36 0.0 0.0 0.00 0.00 0.00 84 1013.7
20260503080517 36 0.0 0.0 0.00 0.00 0.00 84 1013.6
20260503072516 37 0.0 0.0 0.00 0.01 0.00 81 1013.6
20260503071516 38 0.0 0.0 0.00 0.01 0.00 81 1013.6
20260503070516 38 0.0 0.0 0.00 0.01 0.00 80 1013.6
20260503054516 40 0.0 0.0 0.00 0.01 0.00 77 1013.9